Tracking 34794 objects as of 19-Jul-2026
HD Live streaming from Space Station
objects crossing your sky now

CZ-4 DEB

Track CZ-4 DEB now!
10-day predictions


NORAD ID: 37610
Int'l Code: 1990-081CW
Perigee: 866.8 km
Apogee: 1,088.4 km
Inclination: 99.1 °
Period: 104.5 minutes
Semi major axis: 7348 km
RCS: 0.0013 m2 (small)
Launch date: September 3, 1990
Source: People's Republic of China (PRC)
Launch site: Taiyaun Space Center, China (TSC)

Note: This is SATELLITE DEBRIS
Your satellite tracking list
Your tracking list is empty




NASA's NSSDC Master Catalog

Two Line Element Set (TLE):
1 37610U 90081CW  26198.53672881  .00000144  00000-0  16858-3 0  9991
2 37610  99.1069  93.4019 0150759 135.0611 226.2859 13.78156245711705
Source of the keplerian elements: AFSPC